Weather Roundup
Issued by NWS Springfield, MO

Home | Current Version | Previous Version | Text Only | Print | Product List | Glossary On
Versions: 1 2 3 4 5 6 7 8 9 10 11 12 13 14 15 16 17 18 19 20 21 22 23 24 25 26 27 28 29 30 31 32 33 34 35 36 37 38 39 40 41 42 43 44 45 46 47 48 49 50
000
NZUS99 KSGF 210607
HRRSGF

HOURLY WEATHER
NATIONAL WEATHER SERVICE SPRINGFIELD MO
1200 AM CST TUE FEB 21 2017

......SGF CWA......

CITY           SKY/WX    TMP DP  RH WIND       PRES   REMARKS
SPRINGFIELD    LGT RAIN  54  53  97 CALM      29.91F
6HR MIN TEMP:  54; 6HR MAX TEMP:  63; 6HR PCP:  0.01;

JOPLIN         CLOUDY    57  54  89 CALM      29.92F
6HR MIN TEMP:  56; 6HR MAX TEMP:  62;

WEST PLAINS    HVY RAIN  58  56  93 NE3       29.98R FOG
6HR MIN TEMP:  59; 6HR MAX TEMP:  71; 6HR PCP:  1.26;

ROLLA          FOG       57  57 100 E3        29.93R VSB 3/4
6HR MIN TEMP:  57; 6HR MAX TEMP:  70; 6HR PCP:  0.36;

OSAGE BEACH    LGT RAIN  57  56  96 CALM      29.93F
BRANSON        LGT RAIN  55  55 100 CALM      29.96R

......SURROUNDING SGF CWA......

CITY           SKY/WX    TMP DP  RH WIND       PRES   REMARKS
CHANUTE        PTCLDY    45  44  97 CALM      29.92S FOG
PARSONS        CLOUDY    47  45  93 CALM      29.94R
COFFEYVILLE    FOG       48  48 100 CALM      29.92S VSB 1/4
EMPORIA        CLEAR     50  48  93 N9        29.93S
GROVE OK       MOCLDY    54  54 100 CALM      29.94R
ROGERS AR      CLOUDY    56  54  93 W3        29.95R
SILOAM SPRINGS CLOUDY    55  52  88 CALM      29.93S
HARRISON AR    RAIN      57  57 100 W3        29.95R FOG
NEAR YELLVILLE CLOUDY    59  54  82 NE3       29.91F

......KANSAS AND MISSOURI......

CITY           SKY/WX    TMP DP  RH WIND       PRES   REMARKS
KANSAS CTY INT CLOUDY    56  52  86 NW5       29.91F
DOWNTOWN KC    CLOUDY    60  52  74 CALM      29.91S
COLUMBIA       LGT RAIN  59  58  96 S3        29.94S
SEDALIA        CLOUDY    60  55  83 SW5       29.94S
ST JOSEPH      CLOUDY    54  49  83 N12       29.92S
ST LOUIS       LGT RAIN  66  55  67 SE6       29.92F
SPIRIT OF STL  LGT RAIN  62  57  83 W7        29.92R
KIRKSVILLE     CLOUDY    59  55  87 W5        29.92R
WICHITA        CLEAR     53  43  68 N10       29.95S
TOPEKA         PTCLDY    53  47  79 N7        29.93R
OLATHE         CLOUDY    55  52  89 CALM      29.91F

......TENNESSEE......

CITY           SKY/WX    TMP DP  RH WIND       PRES   REMARKS
MEMPHIS        CLOUDY    69  50  50 SE9G20    29.87F
NASHVILLE      PTCLDY    59  44  57 SE7       30.02F

......ARKANSAS.......

CITY           SKY/WX    TMP DP  RH WIND       PRES   REMARKS
FAYETTEVILLE   CLOUDY    55  55 100 N3        29.92F
FT SMITH       CLOUDY    57  56  96 SW3       29.91F FOG
LITTLE ROCK    RAIN      59  59 100 W7        29.90F FOG

......OKLAHOMA.......

CITY           SKY/WX    TMP DP  RH WIND       PRES   REMARKS
TULSA          PTCLDY    52  51  97 CALM      29.89F
PONCA CITY     CLEAR     47  45  93 N3        29.92S
MCALESTER      FOG       47  45  93 CALM      29.91S VSB 1/4
OKLAHOMA CITY  CLEAR     50  48  93 NW9       29.91S

......IOWA............

CITY           SKY/WX    TMP DP  RH WIND       PRES   REMARKS
DES MOINES     CLOUDY    52  45  77 NW6       29.91S
QUAD CITIES    LGT RAIN  59  55  87 S3        29.89R

......ILLINOIS........

CITY           SKY/WX    TMP DP  RH WIND       PRES   REMARKS
QUINCY         LGT RAIN  60  60 100 SE5       29.92S FOG
CHICAGO        CLOUDY    60  46  59 S13       29.91R




USA.gov is the U.S. government's official web portal to all federal, state and local government web resources and services.